Location: Newark
(43.0000°N, 1.6781°W)
Time: 12:07:05
(UTC+00:00)

LilacSat-2 - Pass Details

Date: 07 December 2022
Orbit: 504 x 522 km, 97.5° (Epoch: 06 February)

Event Time Altitude Azimuth Distance (km) Brightness Sun altitude
Rises 06:22:09 0° 8° (N) 2,618 ? -11.0°
Reaches altitude 10° 06:24:16 10° 4° (N) 1,726 ? -10.7°
Maximum altitude 06:27:54 56° 286° (WNW) 608 ? -10.1°
Drops below altitude 10° 06:31:31 10° 208° (SSW) 1,711 ? -9.4°
Sets 06:33:36 0° 204° (SSW) 2,591 ? -9.1°
